sat.trackr.live / text

‹ back to catalog

STARLINK-36538

NORAD 67512 · 2026-012V

PAYLOAD ACTIVE UNKNOWN

§ Identity

Operator
Country
US
Launch date
2026-01-18
Launch site
AFETR
Launch vehicle
Mass (kg)
RCS (m²)

Purposes: comms

External: N2YO · Heavens-Above · Gunter

§ Orbital elements

Epoch: 2026-05-24T23:02:03.887808Z

Period
94.27 min
Inclination
43.0020°
Eccentricity
0.0001245
Mean motion
15.27588634 rev/d
Perigee alt
482.2 km
Apogee alt
483.9 km
Semi-major
6,861.2 km
B*
7.2006e-4
RAAN
243.9011°
Arg perigee
275.4064°
Mean anomaly
84.6645°
Rev number
1,942

§ Raw data

STARLINK-365381 67512U 26012V   26144.95976722  .00019610  00000+0  72006-3 0  99902 67512  43.0020 243.9011 0001245 275.4064  84.6645 15.27588634 19420

JSON: /api/v1/satellites/67512 · /tle

For live sub-satellite position, see the globe view (requires WebGL).

§ Visibility from observer

Set your observer location to see the next 7 days of passes ≥ 10°. The values pass through the URL so the page stays shareable.

No JS? Fill the form by hand. The geolocation button needs JavaScript.